Tracking 18850 objects as of 22-Nov-2017
HD Live streaming from Space Station
objects crossing your sky now

ANIK A2 (TELESAT 2)

Track ANIK A2 (TELESAT 2) now!
ANIK A2 (TELESAT 2) is classified as:


NORAD ID: 6437
Int'l Code: 1973-023A
Perigee: 35,864.5 km
Apogee: 35,987.8 km
Inclination: 13.4 °
Period: 1,442.9 minutes
Semi major axis: 42297 km
RCS: 3.1458 m2 (large)
Launch date: April 20, 1973
Source: Canada (CA)
Launch site: AIR FORCE EASTERN TEST RANGE (AFETR)
aabbcc
Your satellite tracking list
Your tracking list is empty




NASA's NSSDC Master Catalog

Two Line Element Set (TLE):
1 06437U 73023A   17324.37115299 -.00000291  00000-0  00000+0 0  9991
2 06437  13.3770 328.1695 0014569 330.4627 210.8145  0.99801245 89070
Source of the keplerian elements: AFSPC